Location: Arroyo de Fuente Vieja
(40.4902°N, 4.1175°W)
Time: 08:53:29
(UTC+00:00)

Spot 2 Rocket - Pass Details

Date: 18 April 2024
Orbit: 754 x 770 km, 98.4° (Epoch: 19 May)

Event Time Altitude Azimuth Distance (km) Brightness Sun altitude
Exits shadow 22:16:28 42° 284° (WNW) 1,073 4.4 -31.4°
Drops below altitude 10° 22:20:38 10° 334° (NNW) 2,297 6.8 -31.8°
Sets 22:23:02 0° 341° (NNW) 3,224 7.8 -32.1°
